[[{"header":{"parameterUnit":"m.s-1","parameterCategory":1,"la1":30.2991,"la2":30.254,"lo1":-89.0895,"lo2":-89.0444,"dx":0.0017,"dy":0.0017,"nx":28,"ny":28,"refTime":"2022-11-21T15:00:00:Z","depth":0,"parameterNumber":2,"parameterNumberName":"U-component_of_WINDS"},"data":[0,0,0,0,0,0,0,0,0,0,0,0,0,0,0,0,0,0,0,0,0,0,0,0,0,0,0,0,0,0,0,0,0,0,0,0,0,0,0,0,0,0,0,0,0,0,0,0,0,0,0,0,0,0,0,0,0,0,-1.8735,-1.8736,0,-1.8828,-1.8829,-1.883,-1.8759,-1.8756,-1.8753,-1.875,-1.8849,-1.8854,-1.886,0,0,0,0,0,0,0,0,0,0,0,0,0,-1.8498,-1.8503,-1.8735,-1.8736,-1.8737,-1.8828,-1.8829,-1.8831,-1.8759,-1.8755,-1.8752,-1.8748,-1.8847,-1.8854,-1.886,0,0,0,0,0,0,0,0,0,0,0,0,0,-1.8597,-1.8504,-1.8735,-1.8713,-1.8711,-1.8828,-1.8829,-1.8831,-1.876,-1.8755,-1.8751,-1.8746,-1.8845,-1.8853,-1.8861,-1.9006,0,0,-1.8887,-1.889,0,0,0,0,0,0,0,0,-1.8592,-1.8606,-1.8715,-1.8714,-1.8713,-1.8777,-1.8782,-1.889,-1.8761,-1.8742,-1.8749,-1.8744,-1.8829,-1.8838,-1.8866,-1.9011,-1.9015,-1.8887,-1.8893,-1.8896,-1.8898,0,0,0,0,0,0,0,-1.8585,-1.8602,-1.8772,-1.8716,-1.8716,-1.8699,-1.8708,-1.8802,-1.8811,-1.8743,-1.8738,-1.875,-1.8828,-1.8858,-1.8868,-1.9016,-1.8887,-1.8895,-1.89,-1.8903,-1.9284,-1.9289,0,0,0,0,0,0,-1.858,-1.8596,-1.8769,-1.8775,-1.864,-1.8707,-1.8717,-1.8761,-1.8809,-1.8812,-1.8754,-1.8746,-1.8847,-1.8858,-1.8871,-1.9045,-1.8896,-1.8904,-1.8909,-1.9279,-1.9285,-1.9291,0,0,0,0,0,0,-1.8575,-1.8596,-1.8765,-1.8684,-1.8704,-1.8716,-1.8766,-1.8766,-1.8796,-1.8817,-1.8819,-1.8783,-1.8843,-1.886,-1.8973,-1.9047,-1.8908,-1.8915,-1.9273,-1.9281,-1.9288,-1.9393,0,0,0,0,0,0,-1.8569,-1.8595,-1.8649,-1.8686,-1.8709,-1.8865,-1.8771,-1.8771,-1.881,-1.8801,-1.8845,-1.8848,-1.8841,-1.8961,-1.8981,-1.9056,-1.8922,-1.9267,-1.9277,-1.9286,-1.9383,-1.9403,-1.942,0,0,0,0,0,-1.856,-1.8675,-1.8652,-1.8673,-1.8777,-1.8869,-1.8882,-1.8871,-1.8816,-1.8872,-1.8885,-1.8847,-1.9035,-1.8973,-1.8995,-1.9074,-1.9262,-1.9274,-1.9285,-1.9374,-1.9399,-1.942,0,0,0,0,0,0,-1.8649,-1.868,-1.8655,-1.8785,-1.8825,-1.8857,-1.8927,-1.8897,-1.8954,-1.8944,-1.8927,-1.8938,-1.9057,-1.9076,-1.9006,-1.9217,-1.914,-1.9157,-1.92,-1.9224,-1.9242,-1.9237,-1.8929,0,0,0,0,0,-1.8683,-1.8754,-1.8778,-1.889,-1.8911,-1.8916,-1.8955,-1.8942,-1.8983,-1.9,-1.9022,-1.9065,-1.9133,-1.9179,-1.9243,-1.9384,-1.9393,-1.9449,-1.9468,-1.9483,-1.9499,-1.9576,-1.9601,-1.9329,-1.9329,-1.9329,0,0,-1.8756,-1.8781,-1.8827,-1.8909,-1.8938,-1.9013,-1.8931,-1.9013,-1.9069,-1.9013,-1.9122,-1.9139,-1.9185,-1.9313,-1.9371,-1.9333,-1.9575,-1.9498,-1.951,-1.9517,-1.959,-1.9616,-1.9639,-1.9337,-1.9335,-1.9334,0,0,-1.8927,-1.8952,-1.9049,-1.908,-1.9125,-1.9127,-1.915,-1.9186,-1.9196,-1.9303,-1.9263,-1.9329,-1.9448,-1.9483,-1.9516,-1.9698,-1.9666,-1.972,-1.982,-1.9895,-1.9916,-1.9935,-2.0002,-2.0026,-1.9734,-1.9735,-1.9735,0,-1.9012,-1.9122,-1.9104,-1.919,-1.9227,-1.9177,-1.9277,-1.9308,-1.9372,-1.94,-1.9356,-1.9503,-1.9531,-1.9667,-1.9711,-1.9739,-1.9766,-1.9716,-1.9914,-1.9933,-1.9951,-2.0015,-2.004,-1.9741,-1.974,-1.974,-1.9739,0,-1.9225,-1.9303,-1.9376,-1.9438,-1.9483,-1.9575,-1.9572,-1.962,-1.9602,-1.9609,-1.972,-1.9751,-1.9821,-1.9851,-1.9836,-1.9986,-1.9961,-1.9916,-1.9839,-1.9983,-2.0043,-2.0067,-1.975,-1.9748,-1.9746,-1.9744,0,0,-1.9458,-1.9507,-1.9535,-1.9562,-1.9607,-1.9667,-1.9757,-1.9824,-1.9867,-1.9912,-1.9988,-2.0088,-2.0047,-2.0085,-2.0072,-2.0137,-2.0282,-2.0084,-2.0085,-2.0122,-2.0451,-2.0487,-2.0515,-2.0259,-2.0264,-2.0267,-2.0448,0,-1.9633,-1.9789,-1.9774,-1.9923,-1.9994,-1.9947,-2.0026,-2.0062,-2.007,-2.0133,-2.0142,-2.0214,-2.0153,-2.0175,-2.0238,-2.0251,-2.0348,-2.0238,-2.0332,-2.0336,-2.0325,-2.0546,-2.0585,-2.0754,-2.0471,-2.0475,-2.0478,0,-1.9859,-1.9911,-2.0066,-2.01,-2.013,-2.0201,-2.0261,-2.0321,-2.0361,-2.0362,-2.0404,-2.038,-2.0471,-2.039,-2.0516,-2.0441,-2.0479,-2.0491,-2.0497,-2.0508,-2.0418,-2.0566,-2.0807,-2.0834,-2.0514,-2.0511,-2.0509,0,-2.0016,-2.0124,-2.0232,-2.0257,-2.0298,-2.0349,-2.0369,-2.0405,-2.0446,-2.0499,-2.0525,-2.0588,-2.0624,-2.0673,-2.0667,-2.0608,-2.0797,-2.0714,-2.0802,-2.0803,-2.0847,-2.0845,-2.1101,-2.0866,-2.0866,-2.0865,-2.0865,0,-2.0215,-2.0312,-2.0303,-2.037,-2.0477,-2.0459,-2.0567,-2.0581,-2.0613,-2.0682,-2.0644,-2.071,-2.0696,-2.0762,-2.0757,-2.0864,-2.0879,-2.0884,-2.0882,-2.0889,-2.0889,-2.0916,-2.0905,-2.0872,-2.0871,-2.0869,-2.0868,0,-2.041,-2.0407,-2.0522,-2.0551,-2.056,-2.0639,-2.0665,-2.0728,-2.0731,-2.0819,-2.0839,-2.0845,-2.0921,-2.0918,-2.1004,-2.1001,-2.1133,-2.1116,-2.1119,-2.1117,-2.1206,-2.1198,-2.149,-2.1528,-2.1266,-2.1269,-2.1271,0,-2.0539,-2.0613,-2.0649,-2.0692,-2.0715,-2.0785,-2.0826,-2.081,-2.0855,-2.0906,-2.0964,-2.1035,-2.1092,-2.1214,-2.1228,-2.1293,-2.1279,-2.1377,-2.1289,-2.1294,-2.1284,-2.1281,-2.1289,-2.1395,-2.1398,-2.1401,-2.1403,0,-2.0768,-2.0763,-2.0823,-2.0884,-2.0934,-2.0981,-2.1024,-2.1061,-2.105,-2.1103,-2.1178,-2.1222,-2.1309,-2.1381,-2.1443,-2.1465,-2.1434,-2.1429,-2.1454,-2.1463,-2.1463,-2.1467,-2.1169,-2.1424,-2.1422,-2.142,-2.1419,-2.1418,-2.0936,-2.1,-2.1036,-2.1104,-2.1134,-2.1175,-2.1236,-2.1247,-2.1309,-2.1378,-2.1364,-2.145,-2.1488,-2.1569,-2.1595,-2.1663,-2.1628,-2.1663,-2.1672,-2.1682,-2.1693,-2.145,-2.1674,-2.1673,-2.1673,-2.1672,-2.1672,0,-2.1166,-2.1186,-2.1249,-2.131,-2.1364,-2.1326,-2.1372,-2.142,-2.1496,-2.1533,-2.1589,-2.1676,-2.1746,-2.1763,-2.183,-2.1881,-2.1868,-2.1899,-2.1897,-2.1903,-2.1719,-2.1692,-2.1908,-2.1908,-2.1908,-2.1908,-2.1908,-2.1908,-2.1292,-2.1398,-2.1397,-2.1518,-2.1537,-2.162,-2.1649,-2.1687,-2.1717,-2.1816,-2.1873,-2.1883,-2.1913,-2.1981,-2.2043,-2.2047,-2.2074,-2.2112,-2.211,-2.1939,-2.1915,-2.1893,-2.1868,-2.2118,-2.2118,-2.2289,-2.229,-2.2291]},{"header":{"parameterUnit":"m.s-1","parameterCategory":1,"la1":30.2991,"la2":30.254,"lo1":-89.0895,"lo2":-89.0444,"dx":0.0017,"dy":0.0017,"nx":28,"ny":28,"refTime":"2022-11-21T15:00:00:Z","depth":0,"parameterNumber":3,"parameterNumberName":"V-component_of_WINDS"},"data":[0,0,0,0,0,0,0,0,0,0,0,0,0,0,0,0,0,0,0,0,0,0,0,0,0,0,0,0,0,0,0,0,0,0,0,0,0,0,0,0,0,0,0,0,0,0,0,0,0,0,0,0,0,0,0,0,0,0,-4.655,-4.6551,0,-4.6585,-4.6585,-4.6586,-4.6519,-4.6517,-4.6515,-4.6513,-4.6547,-4.655,-4.6553,0,0,0,0,0,0,0,0,0,0,0,0,0,-4.6423,-4.6426,-4.655,-4.6551,-4.6551,-4.6585,-4.6585,-4.6586,-4.6519,-4.6517,-4.6514,-4.6512,-4.6546,-4.6549,-4.6553,0,0,0,0,0,0,0,0,0,0,0,0,0,-4.647,-4.6427,-4.655,-4.6522,-4.652,-4.6585,-4.6585,-4.6586,-4.652,-4.6517,-4.6513,-4.651,-4.6545,-4.6549,-4.6553,-4.6647,0,0,-4.6567,-4.6569,0,0,0,0,0,0,0,0,-4.6467,-4.6475,-4.6526,-4.6524,-4.6522,-4.6544,-4.6553,-4.6606,-4.6521,-4.652,-4.6513,-4.6509,-4.6549,-4.6552,-4.6566,-4.6648,-4.665,-4.6567,-4.657,-4.6572,-4.6573,0,0,0,0,0,0,0,-4.6464,-4.6473,-4.6564,-4.6526,-4.6524,-4.6507,-4.651,-4.6563,-4.6552,-4.652,-4.6515,-4.652,-4.6547,-4.6562,-4.6566,-4.665,-4.6567,-4.6571,-4.6574,-4.6576,-4.6808,-4.6812,0,0,0,0,0,0,-4.6465,-4.6471,-4.6563,-4.6565,-4.6486,-4.6512,-4.6515,-4.654,-4.6552,-4.655,-4.6523,-4.6517,-4.6556,-4.6561,-4.6567,-4.6676,-4.6572,-4.6576,-4.6579,-4.6805,-4.6809,-4.6813,0,0,0,0,0,0,-4.6462,-4.6474,-4.6561,-4.6516,-4.6526,-4.6517,-4.6546,-4.6543,-4.6558,-4.6554,-4.6551,-4.6541,-4.6554,-4.6561,-4.6627,-4.6676,-4.6578,-4.6582,-4.6801,-4.6806,-4.6811,-4.6895,0,0,0,0,0,0,-4.6459,-4.6473,-4.651,-4.6518,-4.6529,-4.6622,-4.6549,-4.6546,-4.6566,-4.6559,-4.657,-4.6569,-4.6552,-4.6621,-4.6632,-4.668,-4.6586,-4.6796,-4.6803,-4.6809,-4.6888,-4.6902,-4.6915,0,0,0,0,0,-4.6455,-4.6532,-4.6512,-4.6523,-4.6574,-4.6625,-4.6631,-4.661,-4.657,-4.6606,-4.6603,-4.6568,-4.6669,-4.6628,-4.664,-4.6691,-4.6793,-4.6801,-4.6809,-4.6881,-4.6899,-4.6915,0,0,0,0,0,0,-4.653,-4.6533,-4.651,-4.6593,-4.6609,-4.6613,-4.6658,-4.663,-4.6658,-4.665,-4.6622,-4.6625,-4.6696,-4.67,-4.6654,-4.678,-4.6724,-4.6735,-4.6775,-4.6792,-4.6806,-4.6803,-4.6589,0,0,0,0,0,-4.6556,-4.6597,-4.6597,-4.667,-4.6679,-4.6667,-4.6688,-4.6671,-4.6687,-4.6693,-4.6695,-4.6711,-4.6746,-4.6769,-4.6802,-4.6888,-4.6888,-4.6929,-4.6942,-4.6953,-4.6963,-4.7006,-4.7024,-4.6839,-4.6839,-4.6839,0,0,-4.661,-4.6617,-4.6645,-4.6685,-4.6695,-4.6738,-4.6674,-4.6721,-4.6752,-4.67,-4.6762,-4.6764,-4.678,-4.6856,-4.6889,-4.6861,-4.7014,-4.6963,-4.6972,-4.6975,-4.7016,-4.7034,-4.7049,-4.6844,-4.6843,-4.6843,0,0,-4.673,-4.6741,-4.6801,-4.6813,-4.6829,-4.6821,-4.6835,-4.6844,-4.6843,-4.6905,-4.6866,-4.6902,-4.6963,-4.6975,-4.699,-4.7113,-4.7081,-4.7124,-4.7195,-4.7238,-4.7253,-4.7265,-4.7308,-4.7323,-4.7133,-4.7134,-4.7134,0,-4.6796,-4.6859,-4.6836,-4.6886,-4.6904,-4.6859,-4.6919,-4.6931,-4.6957,-4.697,-4.6938,-4.7013,-4.7021,-4.7098,-4.7128,-4.7142,-4.7156,-4.7122,-4.7252,-4.7265,-4.7276,-4.7316,-4.7333,-4.7139,-4.7138,-4.7138,-4.7137,0,-4.6937,-4.6981,-4.7028,-4.7054,-4.7077,-4.7133,-4.7117,-4.7143,-4.7123,-4.7117,-4.718,-4.7187,-4.7219,-4.7236,-4.7218,-4.7311,-4.7292,-4.7257,-4.72,-4.7299,-4.7336,-4.7352,-4.7146,-4.7144,-4.7142,-4.7141,0,0,-4.7106,-4.7118,-4.7135,-4.7146,-4.716,-4.7193,-4.7245,-4.7277,-4.7299,-4.7318,-4.736,-4.7412,-4.7379,-4.7396,-4.7378,-4.7416,-4.7511,-4.7375,-4.7375,-4.7399,-4.7611,-4.7637,-4.7655,-4.749,-4.7493,-4.7495,-4.7609,0,-4.7224,-4.7315,-4.7294,-4.7383,-4.7422,-4.7379,-4.7424,-4.7437,-4.7433,-4.7464,-4.7459,-4.7496,-4.7451,-4.746,-4.7496,-4.7492,-4.7553,-4.7483,-4.7527,-4.7529,-4.7524,-4.7674,-4.7702,-4.7809,-4.7624,-4.7626,-4.7628,0,-4.7375,-4.7399,-4.7491,-4.7497,-4.7513,-4.7554,-4.758,-4.7611,-4.7624,-4.7618,-4.7636,-4.761,-4.766,-4.7603,-4.7671,-4.7624,-4.7641,-4.7642,-4.7645,-4.7647,-4.7584,-4.7679,-4.7843,-4.7859,-4.7651,-4.7649,-4.7647,0,-4.7486,-4.7543,-4.7604,-4.7615,-4.7624,-4.7653,-4.7658,-4.7668,-4.7688,-4.771,-4.7722,-4.7751,-4.7766,-4.7788,-4.777,-4.773,-4.784,-4.7782,-4.7835,-4.7835,-4.7859,-4.7858,-4.8026,-4.7873,-4.7872,-4.7872,-4.7872,0,-4.762,-4.7678,-4.7654,-4.7692,-4.7755,-4.7731,-4.7793,-4.7793,-4.7802,-4.7838,-4.7803,-4.7837,-4.7812,-4.7844,-4.783,-4.7887,-4.7895,-4.7891,-4.7886,-4.7893,-4.7893,-4.7903,-4.7894,-4.7876,-4.7875,-4.7874,-4.7874,0,-4.7755,-4.7743,-4.7807,-4.781,-4.7812,-4.7857,-4.7859,-4.7894,-4.7886,-4.7932,-4.7942,-4.793,-4.7966,-4.795,-4.7988,-4.7979,-4.8052,-4.8038,-4.8047,-4.8043,-4.8097,-4.8091,-4.8276,-4.8299,-4.8132,-4.8134,-4.8135,0,-4.7841,-4.7884,-4.7891,-4.7913,-4.792,-4.7956,-4.7975,-4.7952,-4.7974,-4.7991,-4.8023,-4.8056,-4.808,-4.8139,-4.8134,-4.8162,-4.8148,-4.821,-4.8152,-4.8157,-4.8146,-4.8144,-4.8147,-4.8222,-4.8224,-4.8226,-4.8227,0,-4.7993,-4.7984,-4.8014,-4.8041,-4.8064,-4.8085,-4.8101,-4.8121,-4.8099,-4.8124,-4.816,-4.818,-4.8217,-4.825,-4.8274,-4.8278,-4.8249,-4.8245,-4.8259,-4.8266,-4.8269,-4.8266,-4.8078,-4.8241,-4.824,-4.8239,-4.8238,-4.8237,-4.8105,-4.8141,-4.8151,-4.8184,-4.8194,-4.821,-4.8242,-4.8238,-4.8268,-4.8297,-4.8282,-4.8323,-4.8333,-4.8363,-4.8371,-4.8402,-4.8377,-4.8397,-4.8402,-4.8407,-4.8413,-4.8265,-4.8407,-4.8406,-4.8406,-4.8406,-4.8405,0,-4.8254,-4.8258,-4.8289,-4.8313,-4.8339,-4.8309,-4.8326,-4.8349,-4.8386,-4.8398,-4.8423,-4.8463,-4.8494,-4.849,-4.8518,-4.8544,-4.853,-4.8551,-4.8549,-4.855,-4.8435,-4.842,-4.8561,-4.8561,-4.8561,-4.8561,-4.8561,-4.8561,-4.8335,-4.8392,-4.8384,-4.8446,-4.8449,-4.8489,-4.8501,-4.8515,-4.8524,-4.8571,-4.8596,-4.8594,-4.8599,-4.8626,-4.8653,-4.8651,-4.8662,-4.8688,-4.8681,-4.8573,-4.8558,-4.8543,-4.8529,-4.8691,-4.8691,-4.8792,-4.8793,-4.8794]}]]